Regional Weather Roundup
Issued by NWS Little Rock, AR

Home | Current Version | Previous Version | Text Only | Print | Product List | Glossary On
Versions: 1 2 3 4 5 6 7 8 9 10 11 12 13 14 15 16 17 18 19 20 21 22 23 24 25 26 27 28 29 30 31 32 33 34 35 36 37 38 39 40 41 42 43 44 45 46 47 48 49 50
000
ASUS44 KLZK 190612
RWRLZK

WEATHER ROUNDUP FOR ARKANSAS
NATIONAL WEATHER SERVICE LITTLE ROCK AR
1200 AM CST THU JAN 19 2017

NOTE: "FAIR" INDICATES FEW OR NO CLOUDS BELOW 12,000 FEET WITH NO
SIGNIFICANT WEATHER AND/OR OBSTRUCTIONS TO VISIBILITY.

ARZ001-003-010-029-190700-
NORTHWEST ARKANSAS

CITY           SKY/WX    TMP DP  RH WIND       PRES   REMARKS
FAYETTEVILLE   CLOUDY    47  47 100 CALM      29.94F
6HR MIN TEMP:  47; 6HR MAX TEMP:  48; 6HR PCP:  0.02;

FORT SMITH     CLOUDY    46  43  89 E8        29.97F
6HR MIN TEMP:  45; 6HR MAX TEMP:  47;

HARRISON       CLOUDY    42  42 100 SE8       29.98S FOG
6HR MIN TEMP:  42; 6HR MAX TEMP:  43;

BENTONVILLE    CLOUDY   N/A N/A N/A SE7       29.94F
                                      6HR PCP:  0.01;

ROGERS         CLOUDY    45  44  97 SE7       29.95F
6HR MIN TEMP:  44; 6HR MAX TEMP:  46; 6HR PCP:  0.01;

SILOAM SPGS    CLOUDY    46  45  93 SE3       29.94F
6HR MIN TEMP:  46; 6HR MAX TEMP:  46;

HIGHFILL       CLOUDY    48  47  96 E3        29.94F
6HR MIN TEMP:  47; 6HR MAX TEMP:  48;

$$

ARZ004-005-016-190700-
NORTH CENTRAL ARKANSAS

CITY           SKY/WX    TMP DP  RH WIND       PRES   REMARKS
BATESVILLE     CLOUDY    45  43  93 CALM      30.04S
6HR MIN TEMP:  45; 6HR MAX TEMP:  45; 6HR PCP:  0.01;

FLIPPIN        CLOUDY    43  37  81 SE3       29.98F
6HR MIN TEMP:  43; 6HR MAX TEMP:  45;

MTN HOME       CLOUDY    42  41  96 S5        29.99F
6HR MIN TEMP:  42; 6HR MAX TEMP:  43;

$$

ARZ040-041-190700-
WEST CENTRAL ARKANSAS

CITY           SKY/WX    TMP DP  RH WIND       PRES   REMARKS
MENA           CLOUDY    48  46  93 CALM      29.97F
MOUNT IDA      LGT RAIN  47  46  97 CALM      29.95F FOG
6HR MIN TEMP:  47; 6HR MAX TEMP:  47; 6HR PCP: TRACE;

$$

ARZ009-017-025-026-028-190700-
NORTHEAST ARKANSAS

CITY           SKY/WX    TMP DP  RH WIND       PRES   REMARKS
CORNING        CLOUDY    45  45 100 N7        30.04F FOG
JONESBORO      CLOUDY    47  44  90 NE7       30.02F
6HR MIN TEMP:  45; 6HR MAX TEMP:  47; 6HR PCP:  0.01;

NEWPORT        CLOUDY    45  45 100 N7        30.03F FOG
6HR MIN TEMP:  45; 6HR MAX TEMP:  47;

WALNUT RIDGE   CLOUDY    45  41  87 N6        30.03S
6HR MIN TEMP:  45; 6HR MAX TEMP:  45;

BLYTHEVILLE    CLOUDY    49  45  86 NE7       30.03R
6HR MIN TEMP:  48; 6HR MAX TEMP:  49; 6HR PCP: TRACE;

$$

ARZ022-023-033-042-044-190700-
CENTRAL ARKANSAS

CITY           SKY/WX    TMP DP  RH WIND       PRES   REMARKS
LITTLE ROCK    DRZL/FOG  46  46 100 N7        30.00F VSB 1
6HR MIN TEMP:  46; 6HR MAX TEMP:  47; 6HR PCP: TRACE;

N LITTLE ROCK    N/A     46  45  97 N3        30.01F
6HR MIN TEMP:  45; 6HR MAX TEMP:  46;

JACKSONVILLE   CLOUDY    46  46 100 NE5       29.98F FOG
6HR MIN TEMP:  47; 6HR MAX TEMP:  48;

SEARCY         CLOUDY    46  46 100 N6        30.03F FOG
6HR MIN TEMP:  46; 6HR MAX TEMP:  48;

HOT SPRINGS    CLOUDY    47  47 100 CALM      29.98F
6HR MIN TEMP:  47; 6HR MAX TEMP:  48; 6HR PCP: TRACE;

RUSSELLVILLE   CLOUDY    45  44  97 CALM      29.99F
6HR MIN TEMP:  45; 6HR MAX TEMP:  47;

CLINTON        CLOUDY    46  45  93 CALM      30.01F FOG
$$

ARZ036-190700-
EAST ARKANSAS

CITY           SKY/WX    TMP DP  RH WIND       PRES   REMARKS
WEST MEMPHIS   CLOUDY    50  50 100 NW7       30.01R
6HR MIN TEMP:  49; 6HR MAX TEMP:  53; 6HR PCP:  0.05;

$$

ARZ050-053-066-070-073-190700-
SOUTHWEST ARKANSAS

CITY           SKY/WX    TMP DP  RH WIND       PRES   REMARKS
ARKADELPHIA    CLOUDY    48  47  96 N6        29.99F FOG
6HR MIN TEMP:  47; 6HR MAX TEMP:  48;

CAMDEN         CLOUDY    48  46  93 N3        29.99S FOG
TEXARKANA      CLOUDY    48  48 100 E6        29.97F FOG
6HR MIN TEMP:  48; 6HR MAX TEMP:  50; 6HR PCP:  0.02;

EL DORADO      FOG       51  51 100 N3        29.97F VSB 3/4
6HR MIN TEMP:  51; 6HR MAX TEMP:  53; 6HR PCP:  0.04;

DE QUEEN       CLOUDY    49  49 100 E3        29.95F FOG
6HR MIN TEMP:  49; 6HR MAX TEMP:  50;

$$

ARZ056-057-069-190700-
SOUTHEAST ARKANSAS

CITY           SKY/WX    TMP DP  RH WIND       PRES   REMARKS
PINE BLUFF     CLOUDY    49  48  97 N6        29.99F FOG
6HR MIN TEMP:  49; 6HR MAX TEMP:  50; 6HR PCP:  0.02;

STUTTGART      CLOUDY    48  43  81 N8        30.00F
6HR MIN TEMP:  48; 6HR MAX TEMP:  50;

MONTICELLO     FOG       53  52  96 VRB3      29.97F VSB 1/2
6HR MIN TEMP:  51; 6HR MAX TEMP:  55; 6HR PCP:  0.09;


$$





USA.gov is the U.S. government's official web portal to all federal, state and local government web resources and services.